Cloud_Cover
100 100 100 100 100 100 100 100 100 97 58 6 5 5 0 0 0 0 0 0 0 0
100 100 100 100 100 100 100 100 100 49 5 5 4 0 0 0 0 0 0 0 0 3
100 100 100 100 100 100 100 96 20 5 5 3 0 0 0 0 0 0 0 1 5 5
100 100 100 100 100 100 86 16 5 1 0 0 0 0 0 1 4 5 3 5 5 5
100 100 100 100 100 98 42 5 0 0 0 0 0 0 5 0 0 5 5 5 5 5
100 100 100 100 92 65 6 4 4 0 0 0 0 1 5 27 25 10 5 5 5 18
100 100 86 81 44 11 5 5 0 0 0 2 5 5 5 5 5 5 5 5 5 5
100 79 38 5 5 5 0 0 0 0 5 24 60 5 5 5 5 5 5 5 5 5
46 4 0 0 5 5 5 1 5 42 70 42 5 5 5 5 8 5 5 1 4 0
0 0 3 5 2 5 5 49 70 33 12 5 5 5 5 5 5 5 5 4 0 0
3 5 5 5 5 36 80 47 96 30 5 5 5 5 5 5 5 5 2 0 0 0
5 5 5 29 94 38 48 95 20 5 5 5 5 5 5 5 5 5 1 4 5 5
5 34 98 18 81 96 50 5 5 16 5 5 5 5 5 5 5 5 5 5 9 67
100 61 100 99 64 29 6 6 8 11 21 5 2 0 4 5 5 12 41 52 47 82